Regional Weather Roundup
Issued by NWS

Home | Current Version | Previous Version | Text Only | Print | Product List | Glossary On
Versions: 1 2 3 4 5 6 7 8 9 10 11 12 13 14 15 16 17 18 19 20 21 22 23 24 25 26 27 28 29 30 31 32 33 34 35 36 37 38 39 40 41 42 43 44 45 46 47 48 49 50
000
ASUS46 KSEW 041110
RWRWA

WASHINGTON REGIONAL WEATHER ROUNDUP
NATIONAL WEATHER SERVICE SEATTLE WA
400 AM PDT WED MAY 04 2016

NOTE:"FAIR" INDICATES FEW OR NO CLOUDS BELOW 12,000 FEET WITH NO
SIGNIFICANT WEATHER AND/OR OBSTRUCTIONS TO VISIBILITY.

WAZ505-507>509-041200-
SEATTLE, TACOMA, EVERETT, AND VICINITY

CITY           SKY/WX    TMP DP  RH WIND       PRES   REMARKS
EVERETT        MOCLDY    50  43  77 N3        30.09F
BOEING FIELD   CLOUDY    55  47  74 NE6       30.08F
RENTON         CLOUDY    54  45  71 VRB5      30.08F
SEATAC AIRPORT CLOUDY    54  45  71 NE8       30.09F
JBLM-MCCHORD   CLOUDY    56  47  71 NE6       30.07F
PUYALLUP         N/A     54  50  87 CALM      30.08S
BREMERTON      CLOUDY    52  46  82 NE3       30.10F
JBLM-FT LEWIS  CLOUDY    55  51  89 W2        30.07F
TACOMA NARROWS CLOUDY    54  45  71 CALM      30.09S
$$

WAZ001-503-506-510-514-515-041200-
NORTH INTERIOR

CITY           SKY/WX    TMP DP  RH WIND       PRES   REMARKS
BELLINGHAM     CLOUDY    54  50  86 W5        30.07F
FRIDAY HARBOR  CLOUDY    51  47  86 CALM      30.10S
EASTSOUND      CLOUDY    54  48  82 N7        30.08S
PORT ANGELES   CLOUDY    50  42  74 W6        30.11F
EDIZ HOOK      CLOUDY    51  44  77 W13       30.11S
PORT TOWNSEND  CLOUDY    52  43  71 VRB7      30.09S
NAS WHIDBEY    CLOUDY    52  49  89 W14       30.13S
ARLINGTON      CLOUDY    52  41  66 NW7       30.11F
BURLINGTON     CLOUDY    52  48  87 CALM      30.09S
$$

WAZ020-022-039-040-504-511-512-041200-
SOUTHWEST INTERIOR

CITY           SKY/WX    TMP DP  RH WIND       PRES   REMARKS
SHELTON        CLOUDY    51  46  83 SW5       30.07S
OLYMPIA        LGT RAIN  52  47  83 CALM      30.08F
CHEHALIS       CLOUDY    54  50  87 CALM      30.08F
KELSO          CLOUDY    54  45  71 NW5       30.11R
VANCOUVER      MOCLDY    53  49  86 NW5       30.04F
SCAPPOOSE, OR  MOCLDY    53  47  79 NW7       30.05F
PORTLAND, OR   MOCLDY    53  49  86 NW7       30.05F
$$

WAZ021-516-517-041200-
WASHINGTON COAST

CITY           SKY/WX    TMP DP  RH WIND       PRES   REMARKS
FORKS          MOCLDY    48  45  89 NW7       30.13S
HOQUIAM        LGT RAIN  50  46  86 NW5       30.10S
ASTORIA, OR    CLOUDY    53  47  79 N10       30.10S
$$

WAZ019-023-024-040-518-519-041200-
CASCADE MOUNTAINS AND COLUMBIA GORGE

CITY           SKY/WX    TMP DP  RH WIND       PRES   REMARKS
STAMPEDE PASS  CLOUDY    44  42  93 VRB6      30.05F
TROUTDALE, OR  CLOUDY    54  48  80 VRB3      30.04F
THE DALLES, OR CLOUDY    61  50  67 NW7       29.99F
$$

WAZ026-027-041>044-520-521-041200-
EAST SLOPES

CITY           SKY/WX    TMP DP  RH WIND       PRES   REMARKS
OMAK           CLOUDY    61  45  55 N3        29.95R
WENATCHEE      CLOUDY    59  49  69 N14       29.97S
ELLENSBURG     MOCLDY    56  49  77 NW10      29.98R
YAKIMA         CLOUDY    62  48  60 CALM      29.97S
$$

WAZ028-034-035-041200-
COLUMBIA BASIN

CITY           SKY/WX    TMP DP  RH WIND       PRES   REMARKS
EPHRATA        CLOUDY    65  44  46 NW10      29.93S
MOSES LAKE     CLOUDY    62  47  57 S5        29.95S
PASCO          CLOUDY    67  47  48 S5        29.97F
HERMISTON, OR  CLOUDY    63  49  60 SW7       29.98R
$$

WAZ036>038-041200-
NORTHEAST WASHINGTON

CITY           SKY/WX    TMP DP  RH WIND       PRES   REMARKS
SPOKANE GEIGER PTCLDY    56  43  61 S9        29.97R
SPOKANE FELTS  PTCLDY    59  43  55 NE3       29.97S
FAIRCHILD AFB  PTCLDY    53  43  71 S7        29.97R
COEURDALENE,ID PTCLDY    59  43  55 S12       29.95F
DEER PARK      PTCLDY    45  39  79 CALM      29.97S
$$

WAZ029>033-041200-
SOUTHEAST WASHINGTON

CITY           SKY/WX    TMP DP  RH WIND       PRES   REMARKS
PULLMAN        PTCLDY    53  44  71 S7        30.03S
LEWISTON, ID   PTCLDY    56  45  66 SE6       29.99R
WALLA WALLA    MOCLDY    61  45  55 E6        29.99S
PENDLETON, OR  CLOUDY    55  44  66 CALM      29.99F
$$



USA.gov is the U.S. government's official web portal to all federal, state and local government web resources and services.